[[{"header":{"parameterUnit":"m.s-1","parameterCategory":1,"la1":30.2991,"la2":30.254,"lo1":-89.0895,"lo2":-89.0444,"dy":0.0017,"dx":0.0017,"nx":28,"ny":28,"refTime":"2024-03-27T03:00:00:Z","depth":0,"parameterNumber":2,"parameterNumberName":"U-component_of_WINDS"},"data":[0,0,0,0,0,0,0,0,0,0,0,0,0,0,0,0,0,0,0,0,0,0,0,0,0,0,0,0,0,0,0,0,0,0,0,0,0,0,0,0,0,0,0,0,0,0,0,0,0,0,0,0,0,0,0,0,0,0,0.2555,0.2554,0,0.2546,0.2546,0.2546,0.2553,0.2554,0.2554,0.2554,0.2543,0.2542,0.2542,0,0,0,0,0,0,0,0,0,0,0,0,0,0.2576,0.2576,0.2555,0.2554,0.2554,0.2546,0.2546,0.2546,0.2553,0.2554,0.2554,0.2555,0.2543,0.2542,0.2542,0,0,0,0,0,0,0,0,0,0,0,0,0,0.2567,0.2576,0.2555,0.2557,0.2557,0.2546,0.2546,0.2546,0.2553,0.2554,0.2554,0.2555,0.2543,0.2542,0.2542,0.2526,0,0,0.2539,0.2538,0,0,0,0,0,0,0,0,0.2568,0.2566,0.2557,0.2557,0.2557,0.2551,0.2549,0.2539,0.2553,0.2555,0.2554,0.2555,0.2545,0.2544,0.2541,0.2526,0.2525,0.2539,0.2538,0.2538,0.2537,0,0,0,0,0,0,0,0.2568,0.2567,0.2551,0.2557,0.2557,0.2558,0.2558,0.2547,0.2547,0.2555,0.2555,0.2554,0.2545,0.2542,0.2541,0.2525,0.2539,0.2538,0.2537,0.2537,0.2498,0.2497,0,0,0,0,0,0,0.2569,0.2567,0.2551,0.2551,0.2564,0.2558,0.2557,0.2553,0.2547,0.2547,0.2554,0.2555,0.2544,0.2542,0.2541,0.2523,0.2538,0.2537,0.2536,0.2498,0.2498,0.2497,0,0,0,0,0,0,0.2569,0.2567,0.2552,0.2559,0.2557,0.2557,0.2552,0.2552,0.2549,0.2547,0.2547,0.2551,0.2544,0.2542,0.253,0.2523,0.2536,0.2536,0.2499,0.2498,0.2498,0.2487,0,0,0,0,0,0,0.257,0.2567,0.2562,0.2559,0.2557,0.2542,0.2552,0.2552,0.2548,0.2549,0.2544,0.2544,0.2544,0.2532,0.2529,0.2522,0.2535,0.25,0.2499,0.2498,0.2488,0.2486,0.2485,0,0,0,0,0,0.2571,0.2558,0.2561,0.2559,0.255,0.2541,0.254,0.2542,0.2547,0.2541,0.254,0.2544,0.2524,0.253,0.2528,0.252,0.25,0.2499,0.2498,0.2489,0.2487,0.2485,0,0,0,0,0,0,0.2558,0.2558,0.2561,0.2548,0.2545,0.2543,0.2535,0.2539,0.2533,0.2534,0.2536,0.2535,0.2522,0.252,0.2527,0.2506,0.2513,0.2511,0.2507,0.2505,0.2503,0.2503,0.2534,0,0,0,0,0,0.2555,0.2548,0.2548,0.2536,0.2534,0.2535,0.2531,0.2533,0.253,0.2528,0.2526,0.2522,0.2515,0.251,0.2503,0.2489,0.2488,0.2482,0.248,0.2479,0.2477,0.247,0.2467,0.2494,0.2494,0.2494,0,0,0.2546,0.2545,0.254,0.2534,0.2531,0.2524,0.2534,0.2526,0.252,0.2526,0.2515,0.2514,0.2509,0.2497,0.2491,0.2494,0.247,0.2477,0.2476,0.2475,0.2468,0.2466,0.2463,0.2493,0.2493,0.2493,0,0,0.2526,0.2525,0.2515,0.2513,0.2511,0.2511,0.2509,0.2507,0.2507,0.2496,0.2501,0.2495,0.2483,0.2479,0.2476,0.2458,0.2461,0.2456,0.2446,0.2439,0.2437,0.2435,0.2428,0.2426,0.2454,0.2454,0.2454,0,0.2515,0.2505,0.2509,0.2502,0.2499,0.2506,0.2496,0.2494,0.2488,0.2486,0.2491,0.2477,0.2474,0.2461,0.2457,0.2454,0.2452,0.2456,0.2437,0.2435,0.2433,0.2427,0.2425,0.2454,0.2454,0.2454,0.2454,0,0.2492,0.2485,0.2478,0.2474,0.2471,0.2462,0.2465,0.246,0.2463,0.2464,0.2454,0.2451,0.2445,0.2442,0.2444,0.243,0.2432,0.2437,0.2444,0.243,0.2424,0.2422,0.2453,0.2453,0.2453,0.2453,0,0,0.2462,0.2463,0.246,0.2459,0.2457,0.2452,0.2444,0.2439,0.2436,0.2432,0.2425,0.2416,0.2421,0.2418,0.242,0.2414,0.24,0.242,0.242,0.2416,0.2384,0.238,0.2377,0.2403,0.2403,0.2402,0.2385,0,0.2442,0.2429,0.2433,0.242,0.2414,0.2422,0.2415,0.2413,0.2414,0.2409,0.241,0.2403,0.241,0.2409,0.2403,0.2403,0.2394,0.2404,0.2396,0.2396,0.2396,0.2374,0.2369,0.2352,0.2382,0.2382,0.2382,0,0.2416,0.2414,0.24,0.2401,0.2399,0.2392,0.2389,0.2384,0.2383,0.2384,0.2381,0.2385,0.2378,0.2386,0.2376,0.2383,0.238,0.238,0.2379,0.2377,0.2387,0.2371,0.2347,0.2344,0.2378,0.2378,0.2379,0,0.2395,0.2389,0.238,0.2379,0.238,0.2375,0.2375,0.2375,0.2372,0.2369,0.2367,0.2363,0.236,0.2357,0.236,0.2366,0.2349,0.2358,0.2349,0.2349,0.2344,0.2344,0.2318,0.2344,0.2344,0.2344,0.2344,0,0.2372,0.2363,0.2371,0.2365,0.2355,0.2361,0.2352,0.2353,0.2352,0.2347,0.2354,0.2348,0.2353,0.2348,0.2351,0.2341,0.234,0.2341,0.2341,0.2339,0.2339,0.2336,0.2337,0.2343,0.2343,0.2343,0.2343,0,0.2346,0.2351,0.2342,0.2344,0.2345,0.2338,0.234,0.2335,0.2337,0.233,0.2329,0.2333,0.2328,0.2331,0.2325,0.2327,0.2315,0.2317,0.2315,0.2316,0.2307,0.2307,0.2278,0.2274,0.2303,0.2302,0.2302,0,0.233,0.2324,0.2326,0.2324,0.2324,0.232,0.2318,0.2324,0.2321,0.232,0.2315,0.2311,0.2308,0.23,0.2301,0.2297,0.2299,0.2289,0.2299,0.2298,0.2299,0.2299,0.2298,0.2287,0.2286,0.2286,0.2286,0,0.2301,0.2305,0.2301,0.23,0.2298,0.2296,0.2295,0.2293,0.2299,0.2296,0.2292,0.229,0.2285,0.2281,0.2278,0.2278,0.2283,0.2284,0.2281,0.2279,0.2278,0.2278,0.2309,0.2284,0.2284,0.2284,0.2284,0.2284,0.2279,0.2274,0.2276,0.2273,0.2274,0.2273,0.2269,0.2272,0.2269,0.2266,0.227,0.2265,0.2265,0.2262,0.2262,0.2257,0.2261,0.2258,0.2257,0.2256,0.2255,0.228,0.2257,0.2257,0.2257,0.2257,0.2257,0,0.225,0.2252,0.225,0.2249,0.2247,0.2254,0.2254,0.2251,0.2247,0.2247,0.2245,0.2241,0.2237,0.224,0.2237,0.2233,0.2235,0.2232,0.2232,0.2231,0.2251,0.2253,0.223,0.223,0.223,0.223,0.223,0.223,0.2235,0.2227,0.2231,0.2224,0.2226,0.2222,0.2221,0.2221,0.2222,0.2217,0.2214,0.2217,0.2218,0.2216,0.2213,0.2214,0.2212,0.2208,0.2209,0.2227,0.223,0.2232,0.2234,0.2208,0.2208,0.219,0.219,0.219]},{"header":{"parameterUnit":"m.s-1","parameterCategory":1,"la1":30.2991,"la2":30.254,"lo1":-89.0895,"lo2":-89.0444,"dy":0.0017,"dx":0.0017,"nx":28,"ny":28,"refTime":"2024-03-27T03:00:00:Z","depth":0,"parameterNumber":3,"parameterNumberName":"V-component_of_WINDS"},"data":[0,0,0,0,0,0,0,0,0,0,0,0,0,0,0,0,0,0,0,0,0,0,0,0,0,0,0,0,0,0,0,0,0,0,0,0,0,0,0,0,0,0,0,0,0,0,0,0,0,0,0,0,0,0,0,0,0,0,-5.8524,-5.8525,0,-5.8609,-5.861,-5.8611,-5.8561,-5.8559,-5.8557,-5.8554,-5.8643,-5.8648,-5.8652,0,0,0,0,0,0,0,0,0,0,0,0,0,-5.8318,-5.8322,-5.8524,-5.8525,-5.8526,-5.8609,-5.861,-5.8611,-5.8562,-5.8559,-5.8556,-5.8553,-5.8642,-5.8647,-5.8653,0,0,0,0,0,0,0,0,0,0,0,0,0,-5.8406,-5.8324,-5.8524,-5.8512,-5.8511,-5.8608,-5.861,-5.8611,-5.8563,-5.8559,-5.8555,-5.8552,-5.864,-5.8646,-5.8653,-5.8768,0,0,-5.8674,-5.8677,0,0,0,0,0,0,0,0,-5.8401,-5.8413,-5.8512,-5.8513,-5.8512,-5.8571,-5.857,-5.8664,-5.8563,-5.8543,-5.8554,-5.855,-5.8622,-5.863,-5.8654,-5.8772,-5.8776,-5.8675,-5.8679,-5.8682,-5.8684,0,0,0,0,0,0,0,-5.8395,-5.841,-5.8558,-5.8514,-5.8514,-5.8501,-5.851,-5.8587,-5.8602,-5.8545,-5.8541,-5.8552,-5.8621,-5.8648,-5.8656,-5.8777,-5.8675,-5.8681,-5.8685,-5.8688,-5.8989,-5.8993,0,0,0,0,0,0,-5.839,-5.8405,-5.8555,-5.856,-5.8447,-5.8508,-5.8517,-5.8556,-5.8601,-5.8604,-5.8555,-5.8549,-5.8638,-5.8648,-5.8659,-5.8793,-5.8682,-5.8689,-5.8692,-5.8985,-5.899,-5.8994,0,0,0,0,0,0,-5.8386,-5.8404,-5.8551,-5.8482,-5.8499,-5.8515,-5.8559,-5.8559,-5.8585,-5.8608,-5.8611,-5.8579,-5.8635,-5.8649,-5.874,-5.8796,-5.8692,-5.8698,-5.8981,-5.8987,-5.8992,-5.9065,0,0,0,0,0,0,-5.838,-5.8402,-5.8447,-5.8483,-5.8503,-5.8632,-5.8562,-5.8564,-5.8597,-5.8591,-5.8632,-5.8635,-5.8633,-5.873,-5.8747,-5.8804,-5.8703,-5.8976,-5.8984,-5.899,-5.9058,-5.9073,-5.9086,0,0,0,0,0,-5.8373,-5.8465,-5.8449,-5.8468,-5.8559,-5.8635,-5.8647,-5.8643,-5.8602,-5.8646,-5.866,-5.8634,-5.8787,-5.874,-5.8758,-5.8818,-5.8972,-5.8981,-5.899,-5.9052,-5.907,-5.9085,0,0,0,0,0,0,-5.8437,-5.847,-5.8453,-5.856,-5.8595,-5.8627,-5.8683,-5.8663,-5.8711,-5.8703,-5.8696,-5.8705,-5.88,-5.8818,-5.8765,-5.8929,-5.8873,-5.8886,-5.8914,-5.8932,-5.8945,-5.8939,-5.8709,0,0,0,0,0,-5.8464,-5.8523,-5.8548,-5.864,-5.8659,-5.8668,-5.8701,-5.8694,-5.873,-5.8745,-5.8766,-5.8803,-5.8859,-5.8896,-5.8949,-5.906,-5.9067,-5.911,-5.9124,-5.9135,-5.9146,-5.9203,-5.9222,-5.9023,-5.9023,-5.9023,0,0,-5.852,-5.8545,-5.8583,-5.8654,-5.868,-5.8741,-5.8681,-5.8749,-5.8793,-5.8756,-5.8842,-5.8859,-5.8899,-5.8999,-5.9045,-5.9018,-5.9202,-5.9146,-5.9155,-5.916,-5.9214,-5.9233,-5.925,-5.9029,-5.9028,-5.9027,0,0,-5.8652,-5.8678,-5.8756,-5.8782,-5.8822,-5.8827,-5.8845,-5.888,-5.8889,-5.8975,-5.8947,-5.9,-5.9097,-5.9126,-5.9154,-5.9292,-5.9269,-5.9309,-5.9382,-5.9438,-5.9453,-5.9467,-5.9515,-5.9532,-5.9321,-5.9321,-5.9321,0,-5.8717,-5.8808,-5.8799,-5.8867,-5.8898,-5.8865,-5.8943,-5.8969,-5.9025,-5.9047,-5.9015,-5.9134,-5.9159,-5.9264,-5.9297,-5.9321,-5.9341,-5.9305,-5.9452,-5.9465,-5.9478,-5.9524,-5.9542,-5.9325,-5.9325,-5.9324,-5.9324,0,-5.8884,-5.8947,-5.9005,-5.9057,-5.9094,-5.9168,-5.9169,-5.9207,-5.9196,-5.9204,-5.929,-5.9318,-5.9375,-5.9399,-5.939,-5.9502,-5.9484,-5.9452,-5.9396,-5.9502,-5.9544,-5.9562,-5.9332,-5.933,-5.9329,-5.9328,0,0,-5.9064,-5.9106,-5.9128,-5.9149,-5.9189,-5.9237,-5.9307,-5.9361,-5.9393,-5.9431,-5.9489,-5.957,-5.954,-5.9571,-5.9564,-5.9613,-5.9718,-5.9574,-5.9575,-5.9599,-5.9841,-5.9864,-5.9884,-5.9702,-5.9705,-5.9708,-5.9837,0,-5.9198,-5.932,-5.9312,-5.9426,-5.9483,-5.9449,-5.951,-5.954,-5.9548,-5.9596,-5.9605,-5.9662,-5.9618,-5.9636,-5.9683,-5.9695,-5.9766,-5.9686,-5.9755,-5.9758,-5.9746,-5.9907,-5.9933,-6.0053,-5.9854,-5.9856,-5.9858,0,-5.9372,-5.9413,-5.9533,-5.956,-5.9583,-5.9638,-5.9684,-5.9731,-5.9764,-5.9766,-5.9798,-5.9782,-5.9851,-5.9792,-5.9887,-5.9832,-5.986,-5.9869,-5.9874,-5.988,-5.9815,-5.9917,-6.0092,-6.011,-5.9885,-5.9883,-5.9881,0,-5.9489,-5.9575,-5.9656,-5.9676,-5.971,-5.9749,-5.9765,-5.9793,-5.9825,-5.9865,-5.9885,-5.9934,-5.9961,-5.9998,-5.9995,-5.9953,-6.009,-6.0032,-6.0093,-6.0093,-6.0125,-6.0123,-6.0306,-6.0143,-6.0143,-6.0143,-6.0142,0,-5.964,-5.9714,-5.9709,-5.976,-5.984,-5.9829,-5.991,-5.9921,-5.9946,-5.9997,-5.9972,-6.002,-6.0013,-6.0061,-6.0059,-6.0137,-6.0149,-6.0152,-6.0151,-6.0155,-6.0154,-6.0173,-6.0164,-6.0147,-6.0146,-6.0145,-6.0145,0,-5.9786,-5.9785,-5.9872,-5.9895,-5.9902,-5.9961,-5.998,-6.0027,-6.0031,-6.0096,-6.0111,-6.0117,-6.0172,-6.0172,-6.0236,-6.0234,-6.0329,-6.0318,-6.0317,-6.0315,-6.0376,-6.037,-6.0578,-6.0603,-6.0425,-6.0426,-6.0428,0,-5.9883,-5.9938,-5.9966,-5.9997,-6.0015,-6.0067,-6.0097,-6.0087,-6.012,-6.0158,-6.02,-6.0252,-6.0294,-6.0383,-6.0394,-6.0441,-6.0431,-6.05,-6.0439,-6.0439,-6.0431,-6.0427,-6.0432,-6.0513,-6.0515,-6.0517,-6.0518,0,-6.0054,-6.0049,-6.0094,-6.0138,-6.0174,-6.0209,-6.0241,-6.0268,-6.0261,-6.0299,-6.0354,-6.0385,-6.0448,-6.05,-6.0545,-6.0561,-6.0538,-6.0537,-6.0553,-6.0558,-6.0555,-6.0556,-6.035,-6.0533,-6.0531,-6.053,-6.0529,-6.0529,-6.0177,-6.0224,-6.0249,-6.0299,-6.032,-6.0349,-6.0393,-6.0401,-6.0446,-6.0495,-6.0486,-6.0547,-6.0574,-6.0631,-6.0651,-6.0698,-6.0674,-6.0698,-6.0705,-6.0711,-6.0716,-6.0547,-6.0706,-6.0706,-6.0706,-6.0705,-6.0705,0,-6.0346,-6.0359,-6.0405,-6.0448,-6.0486,-6.0459,-6.0491,-6.0525,-6.0578,-6.0605,-6.0644,-6.0706,-6.0754,-6.0767,-6.0813,-6.0848,-6.0839,-6.0861,-6.0858,-6.0862,-6.0736,-6.0717,-6.0868,-6.0867,-6.0867,-6.0867,-6.0867,-6.0867,-6.0439,-6.0515,-6.0513,-6.0598,-6.0611,-6.0669,-6.0689,-6.0715,-6.0735,-6.0804,-6.0843,-6.085,-6.087,-6.0917,-6.096,-6.0962,-6.098,-6.1006,-6.1005,-6.0887,-6.0871,-6.0856,-6.0837,-6.1011,-6.1011,-6.1126,-6.1127,-6.1128]}]]